Weather History for KBKB - October, 2012

Change the Weather History Date:

Friday, October 5, 2012

  Actual Average (KPOE) Record (KPOE)
Temperature  
Mean Temperature 73 °F -  
Max Temperature 86 °F 78 °F 91 °F (2005)
Min Temperature 60 °F 60 °F 49 °F (2014)
Cooling Degree Days 8    
Growing Degree Days 23 (Base 50)    
Moisture  
Dew Point 63 °F    
Average Humidity 79    
Maximum Humidity 100    
Minimum Humidity 46    
Precipitation  
Precipitation 0.00 in - - ()
Sea Level Pressure  
Sea Level Pressure 30.13 in    
Wind  
Wind Speed 1 mph (North)    
Max Wind Speed 7 mph    
Max Gust Speed -    
Visibility 7 miles    
Events      
Averages and records for this station are not official NWS values.
T = Trace of Precipitation, MM = Missing Value Source: NWS Daily Summary

Daily Weather History Graph

Daily Weather History Graph

Search for Another Location

Airport or City:

Trip Planner

Search our weather history database for the weather conditions in past years. The results will help you decide how hot, cold, wet, or windy it might be!

Date:

Astronomy

Oct. 05, 2012 Rise Set
Actual Time 7:08 AM CDT 6:51 PM CDT
Civil Twilight 6:43 AM CDT 7:15 PM CDT
Nautical Twilight 6:15 AM CDT 7:43 PM CDT
Astronomical Twilight 5:47 AM CDT 8:11 PM CDT
Moon 10:33 PM CDT (10/5) 11:58 AM CDT (10/5)
Length of Visible Light 12h 31m
Length of Day
11h 43m
Waning Gibbous, 74% of the Moon is Illuminated
Oct 5
Waning Gibbous
Oct 8
Last Quarter
Oct 15
New
Oct 21
First Quarter
Oct 29
Full

Hourly Weather History & Observations

Time (CDT) Temp. Heat Index Dew Point Humidity Pressure Visibility Wind Dir Wind Speed Gust Speed Precip Events Conditions
12:54 AM 64.0 °F - 62.1 °F 93% 30.20 in 3.0 mi Calm Calm - N/A   Clear
1:54 AM 63.0 °F - 61.0 °F 93% 30.19 in 3.0 mi Calm Calm - N/A   Clear
2:54 AM 63.0 °F - 61.0 °F 93% 30.19 in 3.0 mi Calm Calm - N/A   Clear
3:54 AM 62.1 °F - 60.1 °F 93% 30.19 in 3.0 mi Calm Calm - N/A   Clear
4:54 AM 62.1 °F - 60.1 °F 93% 30.18 in 3.0 mi Calm Calm - N/A   Clear
5:54 AM 62.1 °F - 60.1 °F 93% 30.19 in 4.0 mi Calm Calm - N/A   Clear
6:27 AM 60.8 °F - 60.8 °F 100% 30.12 in 3.0 mi Calm Calm - N/A   Scattered Clouds
6:36 AM 60.8 °F - 59.0 °F 94% 30.12 in 4.0 mi Calm Calm - N/A   Mostly Cloudy
6:54 AM 61.0 °F - 59.0 °F 93% 30.20 in 4.0 mi Calm Calm - N/A   Overcast
7:15 AM 60.8 °F - 59.0 °F 94% 30.12 in 2.0 mi Calm Calm - N/A   Mostly Cloudy
7:23 AM 60.8 °F - 59.0 °F 94% 30.12 in 1.8 mi Calm Calm - N/A   Scattered Clouds
7:35 AM 62.6 °F - 60.8 °F 94% 30.12 in 2.5 mi Calm Calm - N/A   Clear
7:54 AM 63.0 °F - 61.0 °F 93% 30.20 in 2.5 mi Calm Calm - N/A   Clear
8:11 AM 64.4 °F - 62.6 °F 94% 30.12 in 3.0 mi Calm Calm - N/A   Clear
8:54 AM 72.0 °F - 68.0 °F 87% 30.20 in 10.0 mi Calm Calm - N/A   Clear
9:54 AM 78.1 °F - 66.9 °F 68% 30.20 in 10.0 mi Calm Calm - N/A   Clear
10:54 AM 81.0 °F 83.0 °F 66.0 °F 60% 30.19 in 10.0 mi Variable 6.9 mph - N/A   Clear
11:54 AM 84.0 °F 85.8 °F 64.9 °F 53% 30.18 in 10.0 mi Calm Calm - N/A   Clear
12:54 PM 84.9 °F 85.9 °F 63.0 °F 48% 30.16 in 10.0 mi Variable 6.9 mph - N/A   Clear
1:54 PM 84.9 °F 85.9 °F 63.0 °F 48% 30.13 in 10.0 mi Variable 3.5 mph - N/A   Scattered Clouds
2:54 PM 86.0 °F 86.8 °F 63.0 °F 46% 30.09 in 10.0 mi Variable 4.6 mph - N/A   Clear
3:54 PM 86.0 °F 86.8 °F 63.0 °F 46% 30.07 in 10.0 mi Variable 3.5 mph - N/A   Partly Cloudy
4:54 PM 84.9 °F 85.4 °F 62.1 °F 46% 30.06 in 10.0 mi Calm Calm - N/A   Clear
5:54 PM 82.9 °F 84.0 °F 63.0 °F 51% 30.05 in 10.0 mi Calm Calm - N/A   Clear
6:54 PM 75.9 °F - 64.9 °F 69% 30.06 in 10.0 mi Calm Calm - N/A   Clear
7:54 PM 73.0 °F - 64.9 °F 76% 30.06 in 10.0 mi Calm Calm - N/A   Clear
8:54 PM 71.1 °F - 64.9 °F 81% 30.07 in 10.0 mi Calm Calm - N/A   Clear
9:54 PM 70.0 °F - 66.0 °F 87% 30.08 in 10.0 mi Calm Calm - N/A   Clear
10:54 PM 69.1 °F - 64.9 °F 87% 30.09 in 10.0 mi Calm Calm - N/A   Clear
11:54 PM 68.0 °F - 64.9 °F 90% 30.09 in 10.0 mi Calm Calm - N/A   Clear